| time (UTC) | temp F | wind direction | speed knots | gust knots | rain 1hr in | rain 24hr in | rain mn in | humidity % | barometer mb |
| 20260510120047 | 55 | 133 | 0.0 | 0.9 | 0.00 | 0.16 | 0.00 | 97 | 1012.2 |
| 20260510115532 | 54 | 0 | 0.0 | 0.9 | 0.00 | 0.16 | 0.00 | 97 | 1012.0 |
| 20260510115032 | 54 | 0 | 0.0 | 0.9 | 0.00 | 0.16 | 0.00 | 97 | 1012.0 |
| 20260510114548 | 54 | 241 | 0.0 | 0.9 | 0.00 | 0.16 | 0.00 | 97 | 1012.0 |
| 20260510114033 | 54 | 0 | 0.0 | 0.9 | 0.00 | 0.16 | 0.00 | 98 | 1011.9 |
| 20260510113531 | 53 | 110 | 0.0 | 0.9 | 0.00 | 0.16 | 0.00 | 98 | 1011.9 |
| 20260510113044 | 53 | 0 | 0.0 | 1.7 | 0.00 | 0.16 | 0.00 | 98 | 1011.8 |
| 20260510112532 | 53 | 328 | 0.0 | 1.7 | 0.00 | 0.16 | 0.00 | 98 | 1011.9 |
| 20260510112033 | 52 | 326 | 0.0 | 0.9 | 0.00 | 0.16 | 0.00 | 98 | 1011.8 |
| 20260510111553 | 52 | 302 | 0.0 | 0.9 | 0.00 | 0.16 | 0.00 | 98 | 1011.7 |
| 20260510111032 | 52 | 324 | 0.0 | 0.9 | 0.00 | 0.16 | 0.00 | 98 | 1011.6 |
| 20260510110531 | 52 | 0 | 0.0 | 0.9 | 0.00 | 0.16 | 0.00 | 98 | 1011.8 |
| 20260510110047 | 51 | 0 | 0.0 | 0.9 | 0.00 | 0.16 | 0.00 | 98 | 1011.5 |
| 20260510105534 | 51 | 0 | 0.0 | 0.9 | 0.00 | 0.16 | 0.00 | 98 | 1011.5 |
| 20260510105035 | 51 | 0 | 0.0 | 0.9 | 0.00 | 0.16 | 0.00 | 98 | 1011.5 |
| 20260510104555 | 51 | 0 | 0.0 | 0.9 | 0.00 | 0.16 | 0.00 | 98 | 1011.6 |
| 20260510104032 | 51 | 0 | 0.0 | 0.9 | 0.00 | 0.16 | 0.00 | 98 | 1011.7 |
| 20260510103532 | 51 | 0 | 0.0 | 0.0 | 0.00 | 0.16 | 0.00 | 98 | 1011.7 |
| 20260510103049 | 51 | 0 | 0.0 | 0.0 | 0.00 | 0.16 | 0.00 | 98 | 1011.6 |
| 20260510102534 | 51 | 0 | 0.0 | 0.9 | 0.00 | 0.16 | 0.00 | 98 | 1011.5 |
| 20260510102034 | 51 | 0 | 0.0 | 1.7 | 0.00 | 0.16 | 0.00 | 98 | 1011.4 |
| 20260510101542 | 51 | 261 | 0.0 | 1.7 | 0.00 | 0.16 | 0.00 | 98 | 1011.3 |
| 20260510101033 | 51 | 311 | 0.0 | 1.7 | 0.00 | 0.16 | 0.00 | 98 | 1011.2 |
| 20260510100534 | 51 | 327 | 0.0 | 2.6 | 0.00 | 0.16 | 0.00 | 98 | 1011.1 |
| 20260510100047 | 51 | 269 | 0.0 | 2.6 | 0.00 | 0.16 | 0.00 | 98 | 1011.0 |
| 20260510095533 | 51 | 306 | 0.0 | 1.7 | 0.00 | 0.16 | 0.00 | 98 | 1011.1 |
| 20260510095033 | 51 | 0 | 0.0 | 0.9 | 0.00 | 0.16 | 0.00 | 98 | 1010.9 |
| 20260510094548 | 51 | 0 | 0.0 | 0.9 | 0.00 | 0.16 | 0.00 | 98 | 1010.9 |
| 20260510094033 | 51 | 280 | 0.0 | 0.9 | 0.00 | 0.16 | 0.00 | 98 | 1011.0 |
| 20260510093533 | 51 | 0 | 0.0 | 0.0 | 0.00 | 0.16 | 0.00 | 98 | 1011.0 |
| 20260510093102 | 51 | 0 | 0.0 | 0.0 | 0.00 | 0.16 | 0.00 | 98 | 1011.1 |
| 20260510092534 | 51 | 0 | 0.0 | 0.0 | 0.00 | 0.16 | 0.00 | 98 | 1011.0 |
| 20260510092033 | 51 | 0 | 0.0 | 0.0 | 0.00 | 0.16 | 0.00 | 98 | 1011.0 |
| 20260510091546 | 51 | 0 | 0.0 | 0.0 | 0.00 | 0.16 | 0.00 | 98 | 1011.0 |
| 20260510091032 | 51 | 0 | 0.0 | 0.0 | 0.00 | 0.16 | 0.00 | 98 | 1010.9 |
| 20260510090532 | 51 | 0 | 0.0 | 0.0 | 0.00 | 0.16 | 0.00 | 98 | 1011.1 |
| 20260510090050 | 51 | 0 | 0.0 | 0.0 | 0.00 | 0.16 | 0.00 | 98 | 1010.9 |
| 20260510085532 | 51 | 0 | 0.0 | 0.0 | 0.00 | 0.16 | 0.00 | 98 | 1011.1 |
| 20260510085033 | 51 | 202 | 0.0 | 0.0 | 0.00 | 0.16 | 0.00 | 98 | 1011.1 |
| 20260510084549 | 51 | 0 | 0.0 | 0.9 | 0.00 | 0.16 | 0.00 | 98 | 1011.0 |
| 20260510084032 | 51 | 0 | 0.0 | 0.9 | 0.00 | 0.16 | 0.00 | 98 | 1011.0 |
| 20260510083536 | 51 | 0 | 0.0 | 0.9 | 0.00 | 0.16 | 0.00 | 98 | 1011.1 |
| 20260510083047 | 51 | 0 | 0.0 | 0.9 | 0.00 | 0.16 | 0.00 | 98 | 1011.3 |
| 20260510082531 | 51 | 0 | 0.0 | 0.9 | 0.00 | 0.16 | 0.00 | 98 | 1011.3 |
| 20260510082037 | 51 | 131 | 0.0 | 0.0 | 0.00 | 0.16 | 0.00 | 98 | 1011.3 |
| 20260510081606 | 51 | 0 | 0.0 | 0.9 | 0.00 | 0.16 | 0.00 | 98 | 1011.4 |
| 20260510081035 | 51 | 0 | 0.0 | 0.9 | 0.00 | 0.16 | 0.00 | 98 | 1011.3 |
| 20260510080535 | 51 | 0 | 0.0 | 0.9 | 0.00 | 0.16 | 0.00 | 98 | 1011.3 |
| 20260510080047 | 51 | 0 | 0.0 | 0.0 | 0.00 | 0.16 | 0.00 | 98 | 1011.4 |
| 20260510075532 | 51 | 0 | 0.0 | 0.9 | 0.00 | 0.16 | 0.00 | 98 | 1011.6 |
| 20260510075034 | 51 | 0 | 0.0 | 0.9 | 0.00 | 0.16 | 0.00 | 98 | 1011.6 |
| 20260510074547 | 51 | 0 | 0.0 | 0.9 | 0.00 | 0.16 | 0.00 | 98 | 1011.6 |
| 20260510074034 | 51 | 0 | 0.0 | 0.9 | 0.00 | 0.16 | 0.00 | 98 | 1011.6 |
| 20260510073533 | 50 | 0 | 0.0 | 2.6 | 0.00 | 0.16 | 0.00 | 98 | 1011.6 |
| 20260510073054 | 50 | 0 | 0.0 | 2.6 | 0.00 | 0.16 | 0.00 | 98 | 1011.6 |
| 20260510072536 | 50 | 288 | 0.0 | 2.6 | 0.00 | 0.16 | 0.00 | 98 | 1011.6 |
| 20260510072035 | 50 | 338 | 0.9 | 4.3 | 0.00 | 0.16 | 0.00 | 98 | 1011.5 |
| 20260510071541 | 50 | 0 | 0.9 | 4.3 | 0.00 | 0.16 | 0.00 | 98 | 1011.3 |
| 20260510071031 | 50 | 321 | 0.0 | 1.7 | 0.00 | 0.16 | 0.00 | 98 | 1011.3 |
| 20260510070532 | 50 | 0 | 0.0 | 0.0 | 0.00 | 0.16 | 0.00 | 98 | 1011.0 |
| 20260510070046 | 50 | 0 | 0.0 | 0.0 | 0.00 | 0.16 | 0.00 | 98 | 1010.9 |
| 20260510065532 | 50 | 0 | 0.0 | 0.0 | 0.00 | 0.16 | 0.00 | 98 | 1010.9 |
| 20260510065035 | 50 | 0 | 0.0 | 0.0 | 0.00 | 0.16 | 0.00 | 97 | 1011.0 |
| 20260510064552 | 50 | 0 | 0.0 | 0.0 | 0.00 | 0.16 | 0.00 | 97 | 1011.1 |
| 20260510064033 | 49 | 0 | 0.0 | 0.0 | 0.00 | 0.16 | 0.00 | 97 | 1011.0 |
| 20260510063534 | 49 | 0 | 0.0 | 0.0 | 0.00 | 0.16 | 0.00 | 97 | 1011.1 |
| 20260510063048 | 49 | 0 | 0.0 | 0.9 | 0.00 | 0.16 | 0.00 | 97 | 1011.2 |
| 20260510062531 | 49 | 0 | 0.0 | 0.9 | 0.00 | 0.16 | 0.00 | 97 | 1011.1 |
| 20260510062032 | 49 | 0 | 0.0 | 0.9 | 0.00 | 0.16 | 0.00 | 97 | 1011.2 |
| 20260510061548 | 49 | 0 | 0.0 | 0.0 | 0.00 | 0.16 | 0.00 | 97 | 1011.2 |
| 20260510061032 | 49 | 0 | 0.0 | 0.9 | 0.00 | 0.16 | 0.00 | 97 | 1011.2 |
| 20260510060532 | 49 | 0 | 0.0 | 0.9 | 0.00 | 0.16 | 0.00 | 97 | 1011.2 |
| 20260510060055 | 49 | 0 | 0.0 | 0.9 | 0.00 | 0.16 | 0.00 | 97 | 1011.3 |
| 20260510055533 | 49 | 0 | 0.0 | 0.9 | 0.00 | 0.16 | 0.00 | 97 | 1011.3 |
| 20260510055033 | 48 | 0 | 0.0 | 0.9 | 0.00 | 0.16 | 0.00 | 97 | 1011.3 |
| 20260510054541 | 48 | 321 | 0.0 | 0.9 | 0.00 | 0.16 | 0.00 | 97 | 1011.2 |
| 20260510054034 | 48 | 323 | 0.0 | 0.9 | 0.00 | 0.16 | 0.00 | 97 | 1011.2 |
| 20260510053531 | 48 | 0 | 0.0 | 0.9 | 0.00 | 0.16 | 0.00 | 97 | 1011.2 |
| 20260510053053 | 48 | 350 | 0.0 | 0.9 | 0.00 | 0.16 | 0.00 | 97 | 1011.0 |
| 20260510052532 | 48 | 0 | 0.0 | 0.9 | 0.00 | 0.16 | 0.00 | 97 | 1010.8 |
| 20260510052032 | 48 | 0 | 0.0 | 0.9 | 0.00 | 0.16 | 0.00 | 97 | 1011.0 |
| 20260510051601 | 48 | 271 | 0.0 | 0.9 | 0.00 | 0.16 | 0.00 | 97 | 1011.0 |
| 20260510051034 | 48 | 251 | 0.0 | 0.9 | 0.00 | 0.16 | 0.00 | 97 | 1010.9 |
| 20260510050531 | 47 | 251 | 0.0 | 0.9 | 0.00 | 0.16 | 0.00 | 97 | 1010.8 |
| 20260510050058 | 47 | 271 | 0.0 | 0.9 | 0.00 | 0.16 | 0.00 | 97 | 1011.1 |
| 20260510045532 | 47 | 0 | 0.0 | 0.9 | 0.00 | 0.16 | 0.00 | 97 | 1010.9 |
| 20260510045031 | 47 | 0 | 0.0 | 0.9 | 0.00 | 0.16 | 0.00 | 97 | 1011.0 |
| 20260510044556 | 47 | 267 | 0.0 | 0.9 | 0.00 | 0.16 | 0.00 | 97 | 1011.0 |
| 20260510044033 | 47 | 0 | 0.0 | 0.9 | 0.00 | 0.16 | 0.00 | 97 | 1011.0 |
| 20260510043532 | 47 | 346 | 0.0 | 0.9 | 0.00 | 0.16 | 0.00 | 97 | 1011.0 |
| 20260510043051 | 47 | 0 | 0.0 | 0.9 | 0.00 | 0.16 | 0.00 | 97 | 1011.0 |
| 20260510042532 | 47 | 0 | 0.0 | 0.9 | 0.00 | 0.16 | 0.00 | 97 | 1011.1 |
| 20260510042031 | 47 | 345 | 0.0 | 0.9 | 0.00 | 0.16 | 0.00 | 97 | 1011.1 |
| 20260510041543 | 46 | 0 | 0.0 | 0.0 | 0.00 | 0.16 | 0.00 | 97 | 1011.0 |
| 20260510041033 | 46 | 0 | 0.0 | 0.0 | 0.00 | 0.16 | 0.00 | 97 | 1011.0 |
| 20260510040533 | 46 | 0 | 0.0 | 0.9 | 0.00 | 0.16 | 0.00 | 96 | 1011.2 |
| 20260510040046 | 46 | 0 | 0.0 | 0.9 | 0.00 | 0.16 | 0.00 | 97 | 1011.2 |
| 20260510035531 | 46 | 0 | 0.0 | 0.9 | 0.00 | 0.16 | 0.16 | 97 | 1011.1 |
| 20260510035035 | 46 | 0 | 0.0 | 0.9 | 0.00 | 0.16 | 0.16 | 97 | 1011.0 |
| 20260510034547 | 46 | 0 | 0.0 | 0.9 | 0.00 | 0.16 | 0.16 | 96 | 1011.0 |
| 20260510034036 | 47 | 0 | 0.0 | 0.9 | 0.00 | 0.16 | 0.16 | 97 | 1011.0 |
| 20260510033532 | 47 | 0 | 0.0 | 0.9 | 0.00 | 0.16 | 0.16 | 97 | 1010.9 |
| 20260510033056 | 47 | 256 | 0.0 | 0.9 | 0.00 | 0.16 | 0.16 | 96 | 1010.8 |
| 20260510032536 | 47 | 274 | 0.0 | 0.9 | 0.00 | 0.16 | 0.16 | 97 | 1010.8 |
| 20260510032032 | 47 | 0 | 0.0 | 0.9 | 0.00 | 0.16 | 0.16 | 96 | 1010.8 |
| 20260510031547 | 47 | 0 | 0.0 | 0.9 | 0.00 | 0.16 | 0.16 | 96 | 1010.8 |
| 20260510031040 | 47 | 297 | 0.0 | 0.9 | 0.00 | 0.16 | 0.16 | 96 | 1010.8 |
| 20260510030608 | 47 | 0 | 0.0 | 0.9 | 0.00 | 0.16 | 0.16 | 96 | 1010.8 |
| 20260510030106 | 47 | 0 | 0.0 | 0.0 | 0.00 | 0.16 | 0.16 | 96 | 1010.8 |
| 20260510025532 | 48 | 0 | 0.0 | 0.9 | 0.00 | 0.16 | 0.16 | 96 | 1010.8 |
| 20260510025033 | 48 | 0 | 0.0 | 0.9 | 0.00 | 0.16 | 0.16 | 96 | 1010.8 |
| 20260510024545 | 48 | 0 | 0.0 | 0.9 | 0.00 | 0.16 | 0.16 | 96 | 1010.8 |
| 20260510024031 | 48 | 0 | 0.0 | 0.9 | 0.00 | 0.16 | 0.16 | 96 | 1010.7 |
| 20260510023531 | 48 | 0 | 0.0 | 0.9 | 0.00 | 0.16 | 0.16 | 96 | 1010.7 |
| 20260510023047 | 48 | 260 | 0.0 | 0.9 | 0.00 | 0.16 | 0.16 | 96 | 1010.6 |
| 20260510022533 | 48 | 0 | 0.0 | 0.9 | 0.00 | 0.16 | 0.16 | 96 | 1010.4 |
| 20260510022034 | 48 | 0 | 0.0 | 0.9 | 0.00 | 0.16 | 0.16 | 96 | 1010.5 |
| 20260510021541 | 48 | 0 | 0.0 | 0.0 | 0.00 | 0.16 | 0.16 | 96 | 1010.5 |
| 20260510021031 | 49 | 0 | 0.0 | 0.0 | 0.00 | 0.16 | 0.16 | 96 | 1010.6 |
| 20260510020532 | 49 | 0 | 0.0 | 0.0 | 0.00 | 0.16 | 0.16 | 96 | 1010.6 |
| 20260510020048 | 49 | 0 | 0.0 | 0.0 | 0.00 | 0.16 | 0.16 | 96 | 1010.6 |
| 20260510015533 | 49 | 0 | 0.0 | 0.0 | 0.00 | 0.16 | 0.16 | 96 | 1010.5 |
| 20260510015037 | 49 | 0 | 0.0 | 0.9 | 0.00 | 0.16 | 0.16 | 96 | 1010.5 |
| 20260510014553 | 49 | 0 | 0.0 | 0.9 | 0.00 | 0.16 | 0.16 | 96 | 1010.5 |
| 20260510014034 | 49 | 0 | 0.0 | 0.9 | 0.00 | 0.16 | 0.16 | 96 | 1010.5 |
| 20260510013532 | 50 | 0 | 0.0 | 0.0 | 0.00 | 0.16 | 0.16 | 95 | 1010.5 |
| 20260510013055 | 50 | 0 | 0.0 | 0.0 | 0.00 | 0.16 | 0.16 | 95 | 1010.5 |
| 20260510012532 | 50 | 0 | 0.0 | 0.0 | 0.00 | 0.16 | 0.16 | 95 | 1010.4 |
| 20260510012032 | 50 | 0 | 0.0 | 0.0 | 0.00 | 0.16 | 0.16 | 95 | 1010.3 |
| 20260510011541 | 51 | 0 | 0.0 | 0.0 | 0.00 | 0.16 | 0.16 | 95 | 1010.4 |
| 20260510011038 | 51 | 0 | 0.0 | 0.0 | 0.00 | 0.16 | 0.16 | 95 | 1010.2 |
| 20260510010531 | 51 | 0 | 0.0 | 0.0 | 0.00 | 0.16 | 0.16 | 95 | 1010.2 |
| 20260510010043 | 51 | 0 | 0.0 | 0.0 | 0.00 | 0.16 | 0.16 | 95 | 1010.0 |
| 20260510005537 | 51 | 0 | 0.0 | 0.0 | 0.00 | 0.16 | 0.16 | 95 | 1010.0 |
| 20260510005035 | 52 | 0 | 0.0 | 0.9 | 0.00 | 0.16 | 0.16 | 94 | 1010.0 |
| 20260510004542 | 52 | 0 | 0.0 | 0.9 | 0.00 | 0.16 | 0.16 | 95 | 1010.0 |
| 20260510004031 | 52 | 0 | 0.0 | 0.0 | 0.00 | 0.16 | 0.16 | 94 | 1009.9 |
| 20260510003531 | 52 | 0 | 0.0 | 0.0 | 0.00 | 0.16 | 0.16 | 94 | 1009.8 |
| 20260510003054 | 53 | 0 | 0.0 | 0.0 | 0.00 | 0.16 | 0.16 | 94 | 1009.7 |
| 20260510002533 | 53 | 0 | 0.0 | 0.0 | 0.00 | 0.16 | 0.16 | 94 | 1009.7 |
| 20260510002033 | 53 | 0 | 0.0 | 0.9 | 0.00 | 0.16 | 0.16 | 93 | 1009.6 |
| 20260510001546 | 54 | 0 | 0.0 | 0.9 | 0.00 | 0.16 | 0.16 | 93 | 1009.6 |
| 20260510001031 | 54 | 0 | 0.0 | 0.9 | 0.00 | 0.16 | 0.16 | 93 | 1009.5 |
| 20260510000534 | 54 | 0 | 0.0 | 0.0 | 0.00 | 0.16 | 0.16 | 92 | 1009.3 |
| 20260510000053 | 55 | 0 | 0.0 | 0.0 | 0.00 | 0.16 | 0.16 | 92 | 1009.4 |
| 20260509235534 | 55 | 0 | 0.0 | 0.0 | 0.00 | 0.16 | 0.16 | 91 | 1009.4 |
| 20260509235035 | 55 | 0 | 0.0 | 0.9 | 0.00 | 0.16 | 0.16 | 91 | 1009.4 |
| 20260509234553 | 56 | 0 | 0.0 | 0.9 | 0.00 | 0.16 | 0.16 | 91 | 1009.5 |
| 20260509234033 | 56 | 0 | 0.0 | 0.9 | 0.00 | 0.16 | 0.16 | 90 | 1009.5 |
| 20260509233535 | 56 | 0 | 0.0 | 0.9 | 0.00 | 0.16 | 0.16 | 89 | 1009.4 |
| 20260509233051 | 57 | 0 | 0.0 | 0.9 | 0.00 | 0.16 | 0.16 | 89 | 1009.3 |
| 20260509232535 | 57 | 0 | 0.0 | 0.9 | 0.00 | 0.16 | 0.16 | 88 | 1009.3 |
| 20260509232035 | 58 | 50 | 0.0 | 0.9 | 0.00 | 0.16 | 0.16 | 87 | 1009.4 |
| 20260509231542 | 58 | 0 | 0.0 | 0.9 | 0.00 | 0.16 | 0.16 | 86 | 1009.2 |
| 20260509231033 | 59 | 0 | 0.0 | 0.9 | 0.00 | 0.16 | 0.16 | 85 | 1009.3 |
| 20260509230531 | 59 | 67 | 0.0 | 0.9 | 0.00 | 0.16 | 0.16 | 83 | 1009.2 |
| 20260509230041 | 59 | 0 | 0.0 | 1.7 | 0.00 | 0.16 | 0.16 | 82 | 1009.2 |
| 20260509225532 | 60 | 80 | 0.9 | 1.7 | 0.00 | 0.16 | 0.16 | 81 | 1009.2 |
| 20260509225031 | 61 | 304 | 0.0 | 2.6 | 0.00 | 0.16 | 0.16 | 80 | 1009.2 |
| 20260509224546 | 61 | 0 | 0.0 | 2.6 | 0.00 | 0.16 | 0.16 | 80 | 1009.1 |
| 20260509224035 | 61 | 307 | 0.9 | 2.6 | 0.00 | 0.16 | 0.16 | 78 | 1009.1 |
| 20260509223532 | 61 | 126 | 0.0 | 4.3 | 0.00 | 0.16 | 0.16 | 81 | 1009.2 |
| 20260509223047 | 61 | 110 | 0.9 | 4.3 | 0.00 | 0.16 | 0.16 | 79 | 1009.4 |
| 20260509222536 | 61 | 0 | 0.0 | 1.7 | 0.00 | 0.16 | 0.16 | 81 | 1009.4 |
| 20260509222035 | 61 | 128 | 0.0 | 1.7 | 0.00 | 0.16 | 0.16 | 81 | 1009.4 |
| 20260509221543 | 60 | 128 | 0.0 | 0.9 | 0.00 | 0.16 | 0.16 | 85 | 1009.4 |
| 20260509221032 | 59 | 128 | 0.0 | 0.9 | 0.00 | 0.16 | 0.16 | 84 | 1009.3 |
| 20260509220531 | 59 | 0 | 0.0 | 0.9 | 0.00 | 0.16 | 0.16 | 83 | 1009.4 |
| 20260509220044 | 59 | 0 | 0.0 | 2.6 | 0.00 | 0.16 | 0.16 | 82 | 1009.4 |
| 20260509215532 | 60 | 297 | 0.0 | 2.6 | 0.00 | 0.16 | 0.16 | 81 | 1009.4 |
| 20260509215032 | 61 | 271 | 0.0 | 1.7 | 0.00 | 0.16 | 0.16 | 80 | 1009.3 |
| 20260509214541 | 60 | 149 | 0.9 | 2.6 | 0.00 | 0.16 | 0.16 | 81 | 1009.4 |
| 20260509214031 | 60 | 111 | 0.9 | 3.5 | 0.00 | 0.16 | 0.16 | 83 | 1009.3 |
| 20260509213532 | 59 | 77 | 0.9 | 3.5 | 0.00 | 0.16 | 0.16 | 85 | 1009.3 |
| 20260509213049 | 58 | 101 | 0.9 | 3.5 | 0.00 | 0.16 | 0.16 | 85 | 1009.3 |
| 20260509212536 | 58 | 0 | 0.0 | 0.9 | 0.00 | 0.16 | 0.16 | 87 | 1009.4 |
| 20260509212034 | 58 | 156 | 0.0 | 1.7 | 0.00 | 0.16 | 0.16 | 88 | 1009.5 |
| 20260509211540 | 57 | 357 | 0.0 | 1.7 | 0.00 | 0.16 | 0.16 | 87 | 1009.7 |
| 20260509211030 | 58 | 144 | 0.9 | 1.7 | 0.00 | 0.16 | 0.16 | 87 | 1009.7 |
| 20260509210534 | 58 | 334 | 0.0 | 0.9 | 0.00 | 0.16 | 0.16 | 88 | 1009.7 |
| 20260509210047 | 57 | 359 | 0.0 | 1.7 | 0.00 | 0.16 | 0.16 | 87 | 1009.9 |
| 20260509205532 | 57 | 0 | 0.9 | 1.7 | 0.00 | 0.16 | 0.16 | 87 | 1009.9 |
| 20260509205037 | 58 | 0 | 0.0 | 1.7 | 0.00 | 0.16 | 0.16 | 88 | 1009.9 |
| 20260509204550 | 58 | 234 | 0.0 | 0.9 | 0.00 | 0.16 | 0.16 | 88 | 1009.9 |
| 20260509204032 | 58 | 127 | 0.0 | 0.9 | 0.00 | 0.16 | 0.16 | 89 | 1009.8 |
| 20260509203534 | 57 | 0 | 0.0 | 0.9 | 0.00 | 0.16 | 0.16 | 90 | 1009.8 |
| 20260509203042 | 57 | 108 | 0.0 | 0.9 | 0.01 | 0.16 | 0.16 | 89 | 1009.7 |
| 20260509202532 | 57 | 125 | 0.0 | 0.9 | 0.01 | 0.16 | 0.16 | 91 | 1009.8 |
| 20260509202034 | 56 | 0 | 0.0 | 0.9 | 0.01 | 0.16 | 0.16 | 90 | 1009.8 |
| 20260509201552 | 56 | 0 | 0.0 | 0.9 | 0.01 | 0.16 | 0.16 | 91 | 1009.7 |
| 20260509201031 | 56 | 89 | 0.0 | 0.9 | 0.02 | 0.16 | 0.16 | 92 | 1009.7 |
| 20260509200535 | 56 | 122 | 0.0 | 0.9 | 0.02 | 0.16 | 0.16 | 92 | 1009.8 |
| 20260509200051 | 56 | 0 | 0.0 | 0.9 | 0.02 | 0.16 | 0.16 | 92 | 1010.0 |
| 20260509195531 | 56 | 122 | 0.0 | 0.9 | 0.02 | 0.16 | 0.16 | 93 | 1010.0 |
| 20260509195031 | 56 | 127 | 0.0 | 0.9 | 0.03 | 0.16 | 0.16 | 92 | 1010.1 |
| 20260509194547 | 55 | 0 | 0.0 | 0.9 | 0.03 | 0.16 | 0.16 | 92 | 1010.3 |
| 20260509194032 | 56 | 0 | 0.0 | 1.7 | 0.03 | 0.16 | 0.16 | 92 | 1010.2 |
| 20260509193531 | 55 | 113 | 0.0 | 1.7 | 0.03 | 0.16 | 0.16 | 92 | 1010.4 |
| 20260509193108 | 55 | 0 | 0.0 | 0.9 | 0.02 | 0.15 | 0.15 | 91 | 1010.5 |
| 20260509192531 | 55 | 0 | 0.0 | 0.9 | 0.03 | 0.15 | 0.15 | 92 | 1010.8 |
| 20260509192032 | 55 | 0 | 0.0 | 0.9 | 0.03 | 0.15 | 0.15 | 91 | 1011.0 |
| 20260509191542 | 55 | 4 | 0.0 | 0.9 | 0.02 | 0.14 | 0.14 | 91 | 1011.1 |
| 20260509191035 | 56 | 0 | 0.0 | 0.9 | 0.02 | 0.14 | 0.14 | 91 | 1011.2 |
| 20260509190531 | 55 | 0 | 0.0 | 1.7 | 0.02 | 0.14 | 0.14 | 91 | 1011.2 |
| 20260509190041 | 55 | 72 | 0.0 | 1.7 | 0.03 | 0.14 | 0.14 | 90 | 1011.0 |
| 20260509185533 | 56 | 295 | 0.0 | 1.7 | 0.03 | 0.14 | 0.14 | 90 | 1011.2 |
| 20260509185032 | 56 | 0 | 0.0 | 0.9 | 0.02 | 0.13 | 0.13 | 90 | 1011.4 |
| 20260509184600 | 56 | 0 | 0.0 | 0.9 | 0.03 | 0.13 | 0.13 | 89 | 1011.3 |
| 20260509184030 | 56 | 265 | 0.0 | 0.9 | 0.03 | 0.13 | 0.13 | 89 | 1011.3 |
| 20260509183532 | 56 | 125 | 0.0 | 0.9 | 0.05 | 0.13 | 0.13 | 90 | 1011.4 |
| 20260509183050 | 57 | 264 | 0.0 | 0.9 | 0.06 | 0.13 | 0.13 | 90 | 1011.3 |
| 20260509182534 | 57 | 0 | 0.0 | 0.9 | 0.06 | 0.12 | 0.12 | 91 | 1011.3 |
| 20260509182032 | 57 | 0 | 0.0 | 0.9 | 0.08 | 0.12 | 0.12 | 91 | 1011.3 |
| 20260509181549 | 57 | 60 | 0.0 | 0.0 | 0.09 | 0.12 | 0.12 | 91 | 1011.3 |
| 20260509181033 | 56 | 0 | 0.0 | 0.0 | 0.09 | 0.12 | 0.12 | 91 | 1011.3 |
| 20260509180535 | 56 | 0 | 0.0 | 0.9 | 0.10 | 0.12 | 0.12 | 91 | 1011.2 |
| 20260509180047 | 56 | 0 | 0.0 | 0.9 | 0.09 | 0.11 | 0.11 | 91 | 1011.2 |
| 20260509175531 | 57 | 0 | 0.0 | 0.9 | 0.09 | 0.11 | 0.11 | 92 | 1011.2 |
| 20260509175034 | 56 | 0 | 0.0 | 1.7 | 0.10 | 0.11 | 0.11 | 92 | 1011.2 |
| 20260509174542 | 56 | 0 | 0.0 | 1.7 | 0.09 | 0.10 | 0.10 | 91 | 1011.3 |
| 20260509174054 | 57 | 276 | 0.0 | 1.7 | 0.08 | 0.09 | 0.09 | 91 | 1011.1 |
| 20260509173534 | 57 | 293 | 0.0 | 2.6 | 0.08 | 0.08 | 0.08 | 90 | 1011.0 |
| 20260509173104 | 57 | 0 | 0.0 | 2.6 | 0.07 | 0.07 | 0.07 | 90 | 1011.1 |
| 20260509172535 | 57 | 0 | 0.9 | 2.6 | 0.06 | 0.06 | 0.06 | 89 | 1011.3 |
| 20260509172035 | 57 | 102 | 0.0 | 0.9 | 0.04 | 0.04 | 0.04 | 89 | 1011.5 |
| 20260509171613 | 58 | 0 | 0.0 | 0.9 | 0.03 | 0.03 | 0.03 | 89 | 1011.4 |
| 20260509171034 | 58 | 295 | 0.0 | 1.7 | 0.02 | 0.02 | 0.02 | 88 | 1011.4 |
| 20260509170535 | 58 | 321 | 0.0 | 2.6 | 0.02 | 0.02 | 0.02 | 87 | 1011.4 |
| 20260509170047 | 58 | 98 | 0.0 | 2.6 | 0.02 | 0.02 | 0.02 | 87 | 1011.4 |
| 20260509165532 | 58 | 0 | 0.9 | 3.5 | 0.02 | 0.02 | 0.02 | 86 | 1011.2 |
| 20260509165034 | 58 | 333 | 0.0 | 4.3 | 0.01 | 0.01 | 0.01 | 85 | 1011.4 |
| 20260509164546 | 58 | 0 | 0.9 | 4.3 | 0.01 | 0.01 | 0.01 | 85 | 1011.4 |
| 20260509164034 | 58 | 0 | 0.0 | 1.7 | 0.00 | 0.00 | 0.00 | 85 | 1011.2 |
| 20260509163534 | 58 | 0 | 0.0 | 1.7 | 0.00 | 0.00 | 0.00 | 85 | 1011.3 |
| 20260509163046 | 58 | 288 | 0.0 | 4.3 | 0.00 | 0.00 | 0.00 | 85 | 1011.3 |
| 20260509162535 | 58 | 269 | 0.0 | 7.0 | 0.00 | 0.00 | 0.00 | 85 | 1011.4 |
| 20260509162035 | 58 | 98 | 0.9 | 7.0 | 0.00 | 0.00 | 0.00 | 85 | 1011.3 |
| 20260509161544 | 58 | 279 | 0.0 | 2.6 | 0.00 | 0.00 | 0.00 | 85 | 1011.3 |
| 20260509161034 | 58 | 84 | 0.0 | 1.7 | 0.00 | 0.00 | 0.00 | 85 | 1011.4 |
| 20260509160532 | 58 | 0 | 0.0 | 1.7 | 0.00 | 0.00 | 0.00 | 85 | 1011.5 |
| 20260509160041 | 58 | 0 | 0.0 | 0.9 | 0.00 | 0.00 | 0.00 | 86 | 1011.5 |
| 20260509155533 | 58 | 0 | 0.0 | 0.9 | 0.00 | 0.00 | 0.00 | 87 | 1011.6 |
| 20260509155033 | 58 | 130 | 0.0 | 0.9 | 0.00 | 0.00 | 0.00 | 86 | 1011.6 |
| 20260509154551 | 58 | 105 | 0.0 | 2.6 | 0.00 | 0.00 | 0.00 | 85 | 1011.5 |
| 20260509154034 | 57 | 103 | 0.0 | 2.6 | 0.00 | 0.00 | 0.00 | 84 | 1011.6 |
| 20260509153534 | 57 | 0 | 0.0 | 3.5 | 0.00 | 0.00 | 0.00 | 84 | 1011.7 |
| 20260509153050 | 57 | 0 | 0.0 | 3.5 | 0.00 | 0.00 | 0.00 | 85 | 1011.5 |
| 20260509152531 | 57 | 140 | 0.9 | 3.5 | 0.00 | 0.00 | 0.00 | 84 | 1011.6 |
| 20260509152035 | 57 | 0 | 0.0 | 1.7 | 0.00 | 0.00 | 0.00 | 84 | 1011.4 |
| 20260509151547 | 57 | 93 | 0.9 | 2.6 | 0.00 | 0.00 | 0.00 | 84 | 1011.3 |
| 20260509151033 | 57 | 68 | 0.0 | 2.6 | 0.00 | 0.00 | 0.00 | 83 | 1011.4 |
| 20260509150534 | 58 | 0 | 0.0 | 0.9 | 0.00 | 0.00 | 0.00 | 83 | 1011.4 |
| 20260509150103 | 58 | 0 | 0.0 | 1.7 | 0.00 | 0.00 | 0.00 | 83 | 1011.7 |
| 20260509145536 | 58 | 0 | 0.0 | 1.7 | 0.00 | 0.00 | 0.00 | 83 | 1011.7 |
| 20260509145034 | 58 | 0 | 0.0 | 3.5 | 0.00 | 0.00 | 0.00 | 83 | 1011.7 |
| 20260509144630 | 58 | 104 | 0.9 | 3.5 | 0.00 | 0.00 | 0.00 | 82 | 1011.6 |
| 20260509144032 | 58 | 176 | 0.0 | 1.7 | 0.00 | 0.00 | 0.00 | 82 | 1011.6 |
| 20260509143534 | 57 | 0 | 0.0 | 5.2 | 0.00 | 0.00 | 0.00 | 82 | 1011.7 |
| 20260509143047 | 57 | 0 | 0.0 | 5.2 | 0.00 | 0.00 | 0.00 | 82 | 1011.7 |
| 20260509142532 | 57 | 153 | 0.9 | 1.7 | 0.00 | 0.00 | 0.00 | 81 | 1011.7 |
| 20260509142032 | 58 | 267 | 0.0 | 1.7 | 0.00 | 0.00 | 0.00 | 81 | 1011.6 |
| 20260509141550 | 58 | 0 | 0.0 | 1.7 | 0.00 | 0.00 | 0.00 | 81 | 1011.7 |
| 20260509141031 | 58 | 111 | 0.0 | 2.6 | 0.00 | 0.00 | 0.00 | 81 | 1011.5 |
| 20260509140532 | 58 | 134 | 0.0 | 2.6 | 0.00 | 0.00 | 0.00 | 81 | 1011.3 |
| 20260509140048 | 58 | 129 | 0.9 | 3.5 | 0.00 | 0.00 | 0.00 | 80 | 1011.3 |
| 20260509135532 | 58 | 0 | 0.9 | 3.5 | 0.00 | 0.00 | 0.00 | 79 | 1011.3 |
| 20260509135031 | 58 | 0 | 0.0 | 0.9 | 0.00 | 0.00 | 0.00 | 79 | 1011.3 |
| 20260509134548 | 58 | 119 | 0.0 | 0.9 | 0.00 | 0.00 | 0.00 | 79 | 1011.3 |
| 20260509134033 | 58 | 110 | 0.0 | 0.9 | 0.00 | 0.00 | 0.00 | 79 | 1011.4 |
| 20260509133534 | 57 | 0 | 0.0 | 1.7 | 0.00 | 0.00 | 0.00 | 80 | 1011.2 |
| 20260509133050 | 57 | 0 | 0.9 | 1.7 | 0.00 | 0.00 | 0.00 | 80 | 1011.4 |
| 20260509132533 | 57 | 113 | 0.0 | 1.7 | 0.00 | 0.00 | 0.00 | 79 | 1011.4 |
| 20260509132030 | 57 | 0 | 0.0 | 1.7 | 0.00 | 0.00 | 0.00 | 79 | 1011.4 |
| 20260509131545 | 56 | 0 | 0.0 | 0.9 | 0.00 | 0.00 | 0.00 | 80 | 1011.6 |
| 20260509131032 | 56 | 0 | 0.0 | 0.9 | 0.00 | 0.00 | 0.00 | 81 | 1011.3 |
| 20260509130531 | 55 | 0 | 0.0 | 0.0 | 0.00 | 0.00 | 0.00 | 82 | 1011.5 |
| 20260509130045 | 55 | 0 | 0.0 | 0.0 | 0.00 | 0.00 | 0.00 | 83 | 1011.6 |
| 20260509125531 | 54 | 0 | 0.0 | 0.0 | 0.00 | 0.00 | 0.00 | 83 | 1011.5 |
| 20260509125034 | 54 | 0 | 0.0 | 1.7 | 0.00 | 0.00 | 0.00 | 84 | 1011.6 |
| 20260509124558 | 54 | 0 | 0.0 | 1.7 | 0.00 | 0.00 | 0.00 | 85 | 1011.6 |
| 20260509124034 | 53 | 6 | 0.0 | 1.7 | 0.00 | 0.00 | 0.00 | 85 | 1011.6 |
| 20260509123532 | 53 | 265 | 0.0 | 1.7 | 0.00 | 0.00 | 0.00 | 85 | 1011.7 |
| 20260509123041 | 53 | 323 | 0.9 | 1.7 | 0.00 | 0.00 | 0.00 | 85 | 1011.7 |
| 20260509122532 | 53 | 296 | 0.9 | 1.7 | 0.00 | 0.00 | 0.00 | 86 | 1011.6 |
| 20260509122029 | 52 | 301 | 0.0 | 1.7 | 0.00 | 0.00 | 0.00 | 86 | 1011.7 |
| 20260509121545 | 52 | 333 | 0.0 | 1.7 | 0.00 | 0.00 | 0.00 | 87 | 1011.7 |
| 20260509121031 | 52 | 324 | 0.9 | 2.6 | 0.00 | 0.00 | 0.00 | 87 | 1011.8 |
| 20260509120530 | 52 | 357 | 0.0 | 2.6 | 0.00 | 0.00 | 0.00 | 87 | 1011.7 |